Regional Weather Roundup
Issued by NWS

Home | Current Version | Previous Version | Text Only | Print | Product List | Glossary Off
Versions: 1 2 3 4 5 6 7 8 9 10 11 12 13 14 15 16 17 18 19 20 21 22 23 24 25 26 27 28 29 30 31 32 33 34 35 36 37 38 39 40 41 42 43 44 45 46 47 48 49 50

000
ASUS43 KOAX 202310
RWRNE

WEATHER ROUNDUP FOR NEBRASKA
NATIONAL WEATHER SERVICE OMAHA NE
600 PM CDT SUN APR 20 2014

NOTES: SATELLITE DATA IS BEING USED TO AUGMENT CLOUD COVER ABOVE
       12000 FEET.
       "FAIR" INDICATES FEW OR NO CLOUDS BELOW 12,000 FEET WITH NO
       SIGNIFICANT WEATHER AND/OR OBSTRUCTIONS TO VISIBILITY.

  * THESE STATIONS DO NOT REPORT WEATHER SUCH AS RAIN...SNOW OR FOG.

NEZ001>004-019>022-054>056-210000-
NEBRASKA PANHANDLE

CITY           SKY/WX    TMP DP  RH WIND       PRES   REMARKS
SCOTTSBLUFF    MOSUNNY   79  30  16 NW15G22   29.94S
ALLIANCE       MOSUNNY   75  28  17 NW10      29.92S
CHADRON        PTSUNNY   75  34  22 NW12      29.92R
KIMBALL        MOSUNNY   72  23  16 N13       29.98S
SIDNEY         MOSUNNY   78  30  17 NW15      29.95S
$$

NEZ057>060-069>072-079>082-210000-
SOUTHWEST NEBRASKA

CITY           SKY/WX    TMP DP  RH WIND       PRES   REMARKS
NORTH PLATTE   PTSUNNY   75  49  39 SE6       29.90F
IMPERIAL       PTSUNNY   77  45  32 N7        29.91F
LEXINGTON      PTSUNNY   76  50  39 SW10      29.90F
MCCOOK         CLOUDY    72  53  51 S15       29.91R
OGALLALA       SUNNY     76  42  30 S7        29.92S
$$

NEZ005>010-023>029-035>040-094-210000-
NORTH CENTRAL NEBRASKA

CITY           SKY/WX    TMP DP  RH WIND       PRES   REMARKS
VALENTINE      MOSUNNY   81  39  22 S10       29.85F
AINSWORTH      PTSUNNY   79  39  24 S9        29.87F
BROKEN BOW     MOSUNNY   75  49  39 SW12      29.89F
O`NEILL        MOSUNNY   79  44  29 SW7       29.88F
ORD            PTSUNNY   77  49  37 S15       29.87F
THEDFORD       SUNNY     79  38  22 SW6       29.89F
$$

NEZ041-046>049-061>064-073>077-083>087-210000-
SOUTH CENTRAL NEBRASKA

CITY           SKY/WX    TMP DP  RH WIND       PRES   REMARKS
GRAND ISLAND   CLOUDY    78  51  38 S7        29.90F
AURORA         CLOUDY    72  54  53 S21G28    29.90S
HASTINGS       CLOUDY    72  52  49 SW13      29.91R
HEBRON         PTSUNNY   75  53  45 S16G26    29.93S
HOLDREGE       PTSUNNY   74  50  42 S9        29.90S THUNDER
KEARNEY *      CLOUDY    75  52  43 S13       29.90F
YORK           CLOUDY    64  59  82 E9        29.92F THUNDER
$$

NEZ011>018-030>034-042>045-210000-
NORTHEAST NEBRASKA

CITY           SKY/WX    TMP DP  RH WIND       PRES   REMARKS
NORFOLK        CLOUDY    70  56  61 NW6       29.88S
ALBION         CLOUDY    77  45  31 SW16G23   29.89S
BLAIR          CLOUDY    76  51  41 SW25G31   29.91R THUNDER
COLUMBUS *     CLOUDY    73  54  49 S10       29.91F
FREMONT        CLOUDY    76  47  35 SW15G23   29.92R
$$

NEZ050>053-065>068-078-088>093-210000-
SOUTHEAST NEBRASKA

CITY           SKY/WX    TMP DP  RH WIND       PRES   REMARKS
LINCOLN        LGT RAIN  64  59  83 NE6       29.96F
OMAHA EPPLEY   CLOUDY    80  50  34 SW20G31   29.89S
BEATRICE       PTSUNNY   77  53  42 SW20      29.93S
NEBRASKA CITY  CLOUDY    72  53  51 SW17G24   29.93R
PLATTSMOUTH    TSTM      69  52  54 W13G28    29.93S
$$

NEZ044-045-051>053-067-210000-
OMAHA AREA

CITY           SKY/WX    TMP DP  RH WIND       PRES   REMARKS
OMAHA EPPLEY   CLOUDY    80  50  34 SW20G31   29.89S
BLAIR          CLOUDY    76  51  41 SW25G31   29.91R THUNDER
FREMONT        CLOUDY    76  47  35 SW15G23   29.92R
MILLARD        TSTM      73  51  45 W10       29.91R
OFFUTT AFB     TSTM      70  56  59 S18G25    29.93R
PLATTSMOUTH    TSTM      69  52  54 W13G28    29.93S
WAHOO          RAIN      67  55  63 S21G33    29.95R
$$



USA.gov is the U.S. government's official web portal to all federal, state and local government web resources and services.